Regional Weather Roundup
Issued by NWS Spokane, WA

Home | Current Version | Previous Version | Text Only | Print | Product List | Glossary On
Versions: 1 2 3 4 5 6 7 8 9 10 11 12 13 14 15 16 17 18 19 20 21 22 23 24 25 26 27 28 29 30 31 32 33 34 35 36 37 38 39 40 41 42 43 44 45 46 47 48 49 50
000
NZUS01 KOTX 282110
RWROTX

Eastern Washington/Northern Idaho Roundup
National Weather Service, Spokane WA
200 PM PDT FRI APR 28 2017

Note: "fair" indicated few or no clouds below 12,000 feet with no
significant weather and/or obstructions to visibility.

...Northeast Washington and Northern Idaho Panhandle...

CITY           SKY/WX    TMP DP  RH WIND       PRES   REMARKS
Spokane Intl   PTSUNNY   53  33  46 S7        30.15F
Spokane Downto PTSUNNY   56  37  49 S6        30.17S
Coeur d Alene  FAIR      52  38  58 SE8       30.18S
Deer Park      PTSUNNY   55  36  48 S12       30.15F
Sandpoint      FAIR      50  37  62 S7        30.16S
Bonners Ferry  FAIR      54  37  54 SW8G20    30.12S

...Southeast Washington and southern Idaho Panhandle...

CITY           SKY/WX    TMP DP  RH WIND       PRES   REMARKS
Walla Walla    FAIR      59  34  39 SW12      30.23F
Pullman/Moscow PTSUNNY   52  37  56 W13G22    30.22S
Lewiston       PTSUNNY   58  36  43 N10       30.21S
Lowell           N/A     46  39  76 CALM      30.27R
Grangeville    CLOUDY    37  36  93 E9        30.22R

...Columbia Basin...

CITY           SKY/WX    TMP DP  RH WIND       PRES   REMARKS
Ephrata        PTSUNNY   62  23  22 CALM      30.16S
Moses Lake     CLOUDY    63  29  27 W12       30.17F
Pasco          FAIR      64  31  28 S12G17    30.23F
Richland       FAIR      66  34  30 S7        30.22S
Hermiston      FAIR      61  32  33 VRB6G17   30.23F
Pendleton      FAIR      56  36  47 S7        30.23F

...East Slopes Cascades...

CITY           SKY/WX    TMP DP  RH WIND       PRES   REMARKS
The Dalles     FAIR      62  37  39 NW17      30.27F
Yakima         FAIR      64  30  27 CALM      30.20F
Ellensburg     FAIR      60  35  39 NW23      30.19F
Stampede Pass  CLOUDY    38  36  92 SW8       30.26R
Wenatchee      FAIR      62  29  28 VRB5      30.16F
Omak           FAIR      62  28  27 SE6       30.15F
Sunnyside      FAIR      61  31  32 SW5       30.22S

...Southern British Columbia...

CITY           SKY/WX    TMP DP  RH WIND       PRES   REMARKS
Penticton      PTSUNNY   61  32  33 N9G17     30.15F
Castlegar      PTSUNNY   59  32  36 N13       30.10S
Cranbrook      PTSUNNY   48  36  61 S12       30.09R
Osoyoos          N/A     64  30  27 NW7         N/A
Creston          N/A     52  39  62 SW6         N/A

...Western Montana...

CITY           SKY/WX    TMP DP  RH WIND       PRES   REMARKS
Kalispell      CLOUDY    51  37  58 S6        30.09R
Libby            N/A     50  37  62 E6        30.09R
Missoula       PTSUNNY   51  32  48 NW6       30.12S

...Neighboring Cities...

CITY           SKY/WX    TMP DP  RH WIND       PRES   REMARKS
Seattle        PTSUNNY   56  39  53 VRB7      30.36S
Portland       PTSUNNY   58  35  42 NW3       30.36F
Boise          PTSUNNY   56  29  35 NW23G30   30.08R
Great Falls    CLOUDY    41  37  86 SW8       30.08R
Calgary        PTSUNNY   45  23  42 N8        30.07R



USA.gov is the U.S. government's official web portal to all federal, state and local government web resources and services.